User: anonymous   Login
Location: Unspecified
(0.0000°N, 0.0000°E)
Time: 09:59:43
(UTC+01:00)
Language:

Cosmos 1733 Rocket - Orbit

View from above orbital plane
View from above orbital plane
View from above satellite
View from above satellite

Ground track
Ground track

The orbit data is extracted from the following two-line orbital elements,

1 16612U 86018B   15064.51894323  .00000704  00000-0  81814-4 0  9997
2 16612 082.5199 359.4018 0018691 031.8466 085.8143 14.83840370467661
Epoch (UTC): 05 March 2015 12:27:16
Eccentricity: 0.0018691
inclination: 82.5199°
perigee height: 604 km
apogee height: 630 km
right ascension of ascending node: 359.4018°
argument of perigee: 31.8466°
revolutions per day: 14.83840370
mean anomaly at epoch: 85.8143°
orbit number at epoch: 46766

The dashed part of the orbit path shows where the satellite is in the earth's shadow,  

DLR